Back to catalog

PNEO4

AliveScienceSSO
NORAD 49070·PAYLOAD·🇫🇷 France

Launched Aug 17, 2021 from Guiana Space Centre

Loading…

Next Passes (next 24 hours)

TLE

FreshSource: Space-Track

Epoch: Sep 14, 2026, 15:10 UTC

1 49070U 21073E   26257.63235976  .00000796  00000-0  10779-3 0  9995
2 49070  97.8952 331.1093 0001450  85.7196 274.4182 14.81673854274613

Track PNEO4 in real time with AllMySat

Download on the App Store